Volver al catálogo

FENGYUN 1C DEB

ActivoSSO
NORAD 32127·DEBRIS·🇨🇳 China

Lanzado May 10, 1999 desde Taiyuan Satellite Launch Center

Loading…

Próximos Pases (próximas 24 horas)

TLE

EnvejeciendoSource: Space-Track

Época: Sep 10, 2026, 02:24 UTC

1 32127U 99025CRV 26253.10005042  .00001276  00000-0  13325-2 0  9992
2 32127  99.2638 199.0325 0283322  16.5007 344.5129 13.60935147641101

Sigue FENGYUN 1C DEB en tiempo real con AllMySat

Download on the App Store